Tracking 19476 objects as of 17-Jan-2019
HD Live streaming from Space Station
objects crossing your sky now

COSMOS 1640

Track COSMOS 1640 now!
10-day predictions
COSMOS 1640 is classified as:


NORAD ID: 15622
Int'l Code: 1985-023F
Perigee: 1,433.8 km
Apogee: 1,486.1 km
Inclination: 74.1 °
Period: 114.9 minutes
Semi major axis: 7830 km
RCS: 0.7149 m2 (medium)
Launch date: March 21, 1985
Source: Commonwealth of Independent States (former USSR) (CIS)
Launch site: PLESETSK MISSILE AND SPACE COMPLEX (PKMTR)
aabbcc
Your satellite tracking list
Your tracking list is empty




NASA's NSSDC Master Catalog

Two Line Element Set (TLE):
1 15622U 85023F   19016.86845911 -.00000012  00000-0  24716-4 0  9991
2 15622  74.0556 273.3089 0033427 133.3860 296.4113 12.52794753547186
Source of the keplerian elements: AFSPC